Regional Weather Roundup
Issued by NWS Northern Indiana

Home | Current Version | Previous Version | Graphics & Text | Print | Product List | Glossary On
Versions: 1 2 3 4 5 6 7 8 9 10 11 12 13 14 15 16 17 18 19 20 21 22 23 24 25 26 27 28 29 30 31 32 33 34 35 36 37 38 39 40 41 42 43 44 45 46 47 48 49 50
000
ASUS43 KIWX 270910
RWRIWX

KIWX WEATHER ROUNDUP
NATIONAL WEATHER SERVICE NORTHERN INDIANA
400 AM EST THU NOV 27 2014

NOTE: "FAIR" INDICATES FEW OR NO CLOUDS BELOW 12,000 FEET WITH NO
SIGNIFICANT WEATHER AND/OR OBSTRUCTIONS TO VISIBILITY.

* THESE STATIONS ARE NOT UNDER NWS QUALITY CONTROL. THEY ALSO MAY NOT
  REPORT WEATHER SUCH AS PRECIPITATION OR FOG.

INZ001>027-271000-
NORTHERN INDIANA

CITY           SKY/WX    TMP DP  RH WIND       PRES   REMARKS
GARY*          CLOUDY    30  24  79 W8        30.21R WCI  23
VALPARAISO     LGT SNOW  28  25  88 W10       30.18R FOG     WCI  19
MICHIGAN CITY* LGT SNOW  28  23  80 CALM      30.18S
LAPORTE*       FLURRIES  29  26  87 SW3       30.17S
KNOX*          CLOUDY    27  23  84 W3        30.18R
SOUTH BEND     FLURRIES  28  23  81 W3        30.17S
GOSHEN         CLOUDY    27  21  78 NW7       30.15R WCI  19
MONTICELLO*    CLOUDY    26  22  88 NW6       30.19R WCI  19
LOGANSPORT*    CLOUDY    27  21  80 NW5       30.18R WCI  21
ROCHESTER*     CLOUDY    30  25  80 W6        30.17R WCI  24
WARSAW*        CLOUDY    28  23  80 NW5       30.15R WCI  23
ANGOLA*        CLOUDY    27  12  54 N3        30.12F
FORT WAYNE     CLOUDY    29  23  78 NW10      30.14S WCI  20
HUNTINGTON*    CLOUDY    28  23  81 NW3       30.14R
PERU/GRISSOM   CLOUDY    26  24  91 NW6       30.16R WCI  19
MARION*          N/A     28  21  77 N6        30.15R WCI  21

$$
INZ028>050-271000-
CENTRAL INDIANA

CITY           SKY/WX    TMP DP  RH WIND       PRES   REMARKS
LAFAYETTE      MOCLDY    23  19  85 NW8       30.21R WCI  14
KOKOMO*        MOCLDY    27  19  74 NW8       30.16R WCI  18
MUNCIE*        CLOUDY    28  22  78 NW10      30.13R WCI  19
INDIANAPOLIS   CLOUDY    28  19  69 N10       30.16R WCI  19

$$
MIZ043>046-050>051-056>058-064>065-071>073-077>080-271000-
SOUTHWEST LOWER MICHIGAN

CITY           SKY/WX    TMP DP  RH WIND       PRES   REMARKS
BATTLE CREEK   CLOUDY    29  20  69 NW5       30.14R WCI  24
BENTON HARBOR  LGT SNOW  27  24  89 CALM      30.16S FOG
COLDWATER*     CLOUDY    29  23  77 N6        30.13S WCI  23
HILLSDALE*     LGT SNOW  28  26  93 NW6       30.10S WCI  21
HOLLAND        CLOUDY    30  25  81 CALM      30.17R
GRAND RAPIDS   CLOUDY    29  21  72 W7        30.15S WCI  22
KALAMAZOO      CLOUDY    28  21  75 W5        30.14S WCI  23
STURGIS*       CLOUDY    27  23  86 W5        30.13S WCI  21
THREE RIVERS*  CLOUDY    29  24  82 NW6       30.15S WCI  22

$$
OHZ001>008-015>018-024>025-271000-
NORTHWEST OHIO

CITY           SKY/WX    TMP DP  RH WIND       PRES   REMARKS
WAUSEON*       CLOUDY    30  25  80 NW12      30.11R WCI  21
DEFIANCE       CLOUDY    30  24  78 NW8       30.13S WCI  22
FINDLAY        CLOUDY    31  25  78 NW13      30.08R WCI  21
TOLEDO EXPRESS CLOUDY    29  24  82 NW9       30.10R WCI  20
TOLEDO METCALF CLOUDY    31  24  75 NW12      30.10R WCI  22
LIMA           CLOUDY    31  25  78 N10       30.08R WCI  22

$$
AND FOR LAKE MICHIGAN COASTAL AND OPEN LAKE BUOY OBSERVATIONS

STATION/POSITION TEMP    WIND        PRES    VSBY  WAVE
                 AIR SEA DIR/SP/G                  HT/PER
                 (F)     (DEG/KT/KT) (MB)    (MI)  (FT/S)
CALUMET HARBOR    28     280/  8/ 12 1021.7R
MICHIGAN CITY     29     160/  4/  7   N/A
SAINT JOSEPH      28     110/  2/  3 1021.3F
SOUTH LAKE BUOY   32 42  320/ 17/ 21 1022.3S         4/ 5

$$
&&



USA.gov is the U.S. government's official web portal to all federal, state and local government web resources and services.